Location: Chuathbaluk
(61.5726°N, 159.2454°W)
Time: 02:44:34
(UTC+00:00)

TIGRISAT - Pass Details

Date: 20 January 2021
Orbit: 605 x 688 km, 97.7° (Epoch: 05 March)

Event Time Altitude Azimuth Distance (km) Brightness Sun altitude
Rises 14:21:19 0° 86° (E) 2,892 ? -34.6°
Reaches altitude 10° 14:24:58 10° 54° (NE) 2,006 ? -34.2°
Maximum altitude 14:26:22 11° 35° (NE) 1,919 ? -34.1°
Drops below altitude 10° 14:27:47 10° 16° (NNE) 2,023 ? -33.9°
Enters shadow 14:28:41 - 6° (N) 2,179 ? -33.8°
